Date,TemperatureHighF,TemperatureAvgF,TemperatureLowF,DewpointHighF,DewpointAvgF,DewpointLowF,HumidityHigh,HumidityAvg,HumidityLow,PressureMaxIn,PressureMinIn,WindSpeedMaxMPH,WindSpeedAvgMPH,GustSpeedMaxMPH,PrecipitationSumIn
2013-5-1,76,59,41,30,20,13,53,24,13,30.41,30.29,0,0,0,0.00
2013-5-2,78,60,41,32,22,15,57,26,13,30.44,30.29,0,0,0,0.00
2013-5-3,72,59,44,35,21,12,69,26,14,30.38,30.27,0,0,0,0.00
2013-5-4,75,58,38,34,22,14,68,29,13,30.32,30.15,0,0,0,0.00
2013-5-5,76,60,42,32,20,12,51,24,13,30.24,30.12,0,0,0,0.00
2013-5-6,71,58,39,36,24,11,62,30,17,30.21,30.09,0,0,0,0.00
2013-5-7,77,63,51,46,37,24,70,44,15,30.12,30.00,0,0,0,0.00
2013-5-8,74,62,56,60,49,31,86,67,22,30.03,29.91,0,0,0,0.00
2013-5-9,72,60,54,58,49,32,88,69,23,29.97,29.91,0,0,0,0.00
2013-5-10,76,64,52,60,48,32,89,62,21,30.00,29.85,0,0,0,0.00
2013-5-11,74,66,60,62,49,29,86,62,21,29.85,29.70,0,0,0,0.00
2013-5-12,62,55,42,37,18,5,55,25,16,29.97,29.73,0,0,0,0.00
2013-5-13,57,47,37,17,10,4,40,23,17,30.15,29.97,0,0,0,0.00
2013-5-14,68,48,30,37,16,9,63,32,15,30.18,30.03,0,0,0,0.00
2013-5-15,84,61,48,49,32,20,74,36,13,30.03,29.67,0,0,0,0.00
2013-5-16,88,70,56,58,38,16,87,41,13,29.91,29.73,0,0,0,0.00
2013-5-17,79,64,47,29,23,12,47,22,13,30.18,29.94,0,0,0,0.00
2013-5-18,70,62,55,46,30,24,60,30,19,30.24,30.18,0,0,0,0.00
2013-5-19,65,62,58,59,52,46,86,72,54,30.21,30.12,0,0,0,0.00
2013-5-20,87,72,62,63,50,36,88,54,18,30.12,29.94,0,0,0,0.00
2013-5-21,94,78,62,66,47,30,87,44,11,29.97,29.79,0,0,0,0.00
2013-5-22,92,78,66,67,48,29,86,47,12,29.88,29.76,0,0,0,0.00
2013-5-23,80,70,63,64,56,31,86,67,21,29.88,29.73,0,0,0,0.00
2013-5-24,63,54,48,59,32,13,87,49,22,30.15,29.73,0,0,0,0.00
2013-5-25,68,55,44,19,15,10,33,21,15,30.15,30.06,0,0,0,0.00
2013-5-26,75,59,46,21,16,9,33,19,13,30.21,30.09,0,0,0,0.00
2013-5-27,76,58,38,38,25,16,85,37,13,30.27,30.15,0,0,0,0.00
2013-5-28,68,60,54,59,49,36,85,69,48,30.18,30.06,0,0,0,0.00
2013-5-29,92,75,61,63,46,27,88,49,12,30.09,30.00,0,0,0,0.00
2013-5-30,95,77,59,62,45,30,88,44,11,30.18,30.06,0,0,0,0.00
2013-5-31,95,78,63,67,45,27,86,43,11,30.15,29.97,0,0,0,0.00